| time (UTC) | temp F | wind direction | speed MPH | gust MPH | rain 1hr in | rain 24hr in | rain mn in | humidity % | barometer mb |
| 20260905002016 | 92 | 0 | 3.0 | 8.0 | 0.00 | 0.05 | 0.05 | 49 | 1012.8 |
| 20260905001537 | 92 | 146 | 2.0 | 8.0 | 0.00 | 0.05 | 0.05 | 48 | 1012.7 |
| 20260905000519 | 92 | 138 | 3.0 | 10.0 | 0.00 | 0.05 | 0.05 | 48 | 1012.6 |
| 20260904235520 | 93 | 138 | 4.0 | 8.0 | 0.00 | 0.05 | 0.05 | 46 | 1012.6 |
| 20260904235018 | 93 | 176 | 4.0 | 10.0 | 0.00 | 0.05 | 0.05 | 46 | 1012.5 |
| 20260904234540 | 94 | 127 | 2.0 | 10.0 | 0.00 | 0.05 | 0.05 | 46 | 1012.4 |
| 20260904234020 | 93 | 152 | 3.0 | 11.0 | 0.00 | 0.05 | 0.05 | 46 | 1012.3 |
| 20260904233520 | 94 | 167 | 4.0 | 11.0 | 0.00 | 0.05 | 0.05 | 45 | 1012.3 |
| 20260904233038 | 94 | 121 | 5.0 | 10.0 | 0.00 | 0.05 | 0.05 | 45 | 1012.2 |
| 20260904232518 | 94 | 135 | 3.0 | 9.0 | 0.00 | 0.05 | 0.05 | 45 | 1012.2 |
| 20260904232019 | 95 | 166 | 3.0 | 9.0 | 0.00 | 0.05 | 0.05 | 44 | 1012.4 |
| 20260904231535 | 95 | 156 | 2.0 | 11.0 | 0.00 | 0.05 | 0.05 | 45 | 1012.4 |
| 20260904230040 | 95 | 163 | 4.0 | 8.0 | 0.00 | 0.05 | 0.05 | 44 | 1012.5 |
| 20260904225020 | 95 | 159 | 3.0 | 13.0 | 0.00 | 0.05 | 0.05 | 43 | 1012.5 |
| 20260904224537 | 95 | 134 | 3.0 | 8.0 | 0.00 | 0.05 | 0.05 | 44 | 1012.6 |
| 20260904224018 | 96 | 142 | 2.0 | 9.0 | 0.00 | 0.05 | 0.05 | 42 | 1012.6 |
| 20260904223521 | 96 | 169 | 3.0 | 10.0 | 0.00 | 0.05 | 0.05 | 43 | 1012.7 |
| 20260904223039 | 96 | 141 | 3.0 | 11.0 | 0.00 | 0.05 | 0.05 | 42 | 1012.8 |
| 20260904222517 | 96 | 99 | 4.0 | 11.0 | 0.00 | 0.05 | 0.05 | 43 | 1012.8 |
| 20260904222022 | 96 | 150 | 4.0 | 11.0 | 0.00 | 0.05 | 0.05 | 43 | 1012.7 |
| 20260904221537 | 96 | 164 | 5.0 | 11.0 | 0.00 | 0.05 | 0.05 | 43 | 1012.8 |
| 20260904220516 | 96 | 174 | 3.0 | 10.0 | 0.00 | 0.05 | 0.05 | 44 | 1012.9 |
| 20260904220043 | 96 | 143 | 4.0 | 9.0 | 0.00 | 0.05 | 0.05 | 43 | 1012.8 |
| 20260904214541 | 95 | 148 | 3.0 | 11.0 | 0.00 | 0.05 | 0.05 | 43 | 1013.1 |
| 20260904214023 | 95 | 130 | 4.0 | 11.0 | 0.00 | 0.05 | 0.05 | 44 | 1013.2 |
| 20260904213522 | 95 | 163 | 5.0 | 11.0 | 0.00 | 0.05 | 0.05 | 43 | 1013.2 |
| 20260904213042 | 95 | 192 | 5.0 | 11.0 | 0.00 | 0.05 | 0.05 | 44 | 1013.3 |
| 20260904211543 | 95 | 204 | 5.0 | 12.0 | 0.00 | 0.05 | 0.05 | 44 | 1013.4 |
| 20260904210518 | 96 | 152 | 5.0 | 12.0 | 0.00 | 0.05 | 0.05 | 42 | 1013.6 |
| 20260904210040 | 95 | 144 | 5.0 | 12.0 | 0.00 | 0.05 | 0.05 | 44 | 1013.7 |
| 20260904205521 | 95 | 165 | 4.0 | 9.0 | 0.00 | 0.05 | 0.05 | 44 | 1013.7 |
| 20260904205017 | 94 | 146 | 4.0 | 11.0 | 0.00 | 0.05 | 0.05 | 44 | 1013.7 |
| 20260904204539 | 95 | 146 | 4.0 | 11.0 | 0.00 | 0.05 | 0.05 | 44 | 1013.8 |
| 20260904203038 | 93 | 139 | 4.0 | 10.0 | 0.00 | 0.05 | 0.05 | 45 | 1014.1 |
| 20260904201540 | 92 | 132 | 5.0 | 11.0 | 0.00 | 0.05 | 0.05 | 48 | 1014.3 |
| 20260904200518 | 92 | 152 | 4.0 | 9.0 | 0.00 | 0.05 | 0.05 | 51 | 1014.5 |
| 20260904200036 | 92 | 157 | 3.0 | 10.0 | 0.00 | 0.05 | 0.05 | 51 | 1014.6 |
| 20260904195524 | 92 | 169 | 5.0 | 10.0 | 0.00 | 0.05 | 0.05 | 52 | 1014.5 |
| 20260904195020 | 92 | 202 | 4.0 | 10.0 | 0.00 | 0.05 | 0.05 | 51 | 1014.6 |
| 20260904194538 | 93 | 211 | 5.0 | 13.0 | 0.00 | 0.05 | 0.05 | 50 | 1014.6 |
| 20260904194019 | 94 | 140 | 6.0 | 14.0 | 0.00 | 0.05 | 0.05 | 48 | 1014.7 |
| 20260904193041 | 96 | 156 | 4.0 | 13.0 | 0.00 | 0.05 | 0.05 | 46 | 1014.7 |
| 20260904191539 | 95 | 155 | 3.0 | 12.0 | 0.00 | 0.05 | 0.05 | 45 | 1015.0 |
| 20260904190038 | 94 | 173 | 4.0 | 12.0 | 0.00 | 0.05 | 0.05 | 45 | 1015.0 |
| 20260904185519 | 94 | 163 | 3.0 | 12.0 | 0.00 | 0.05 | 0.05 | 44 | 1015.0 |
| 20260904185022 | 93 | 148 | 4.0 | 10.0 | 0.00 | 0.05 | 0.05 | 45 | 1015.1 |
| 20260904184538 | 92 | 165 | 3.0 | 10.0 | 0.00 | 0.05 | 0.05 | 45 | 1015.2 |
| 20260904184017 | 92 | 208 | 3.0 | 10.0 | 0.00 | 0.05 | 0.05 | 45 | 1015.1 |
| 20260904183519 | 91 | 172 | 5.0 | 10.0 | 0.00 | 0.05 | 0.05 | 45 | 1015.2 |
| 20260904183037 | 91 | 157 | 3.0 | 10.0 | 0.00 | 0.05 | 0.05 | 45 | 1015.2 |
| 20260904181540 | 90 | 163 | 3.0 | 9.0 | 0.00 | 0.05 | 0.05 | 47 | 1015.4 |
| 20260904181023 | 89 | 173 | 3.0 | 8.0 | 0.00 | 0.05 | 0.05 | 50 | 1015.5 |
| 20260904180526 | 89 | 163 | 2.0 | 12.0 | 0.00 | 0.05 | 0.05 | 51 | 1015.5 |
| 20260904180047 | 89 | 169 | 4.0 | 13.0 | 0.00 | 0.05 | 0.05 | 49 | 1015.5 |
| 20260904175517 | 90 | 215 | 6.0 | 13.0 | 0.00 | 0.05 | 0.05 | 50 | 1015.5 |
| 20260904175019 | 91 | 194 | 3.0 | 8.0 | 0.00 | 0.05 | 0.05 | 50 | 1015.6 |
| 20260904174542 | 89 | 199 | 4.0 | 8.0 | 0.00 | 0.05 | 0.05 | 51 | 1015.8 |
| 20260904173516 | 88 | 209 | 2.0 | 9.0 | 0.00 | 0.05 | 0.05 | 52 | 1015.9 |
| 20260904173040 | 88 | 169 | 2.0 | 10.0 | 0.00 | 0.05 | 0.05 | 52 | 1016.0 |
| 20260904171609 | 86 | 218 | 5.0 | 10.0 | 0.00 | 0.05 | 0.05 | 53 | 1016.1 |
| 20260904171017 | 86 | 204 | 5.0 | 10.0 | 0.00 | 0.05 | 0.05 | 52 | 1016.2 |
| 20260904170519 | 87 | 207 | 3.0 | 10.0 | 0.00 | 0.05 | 0.05 | 52 | 1016.2 |
| 20260904170038 | 86 | 196 | 3.0 | 8.0 | 0.00 | 0.05 | 0.05 | 54 | 1016.2 |
| 20260904165520 | 86 | 190 | 3.0 | 9.0 | 0.00 | 0.05 | 0.05 | 54 | 1016.3 |
| 20260904165017 | 86 | 172 | 3.0 | 9.0 | 0.00 | 0.05 | 0.05 | 53 | 1016.3 |
| 20260904164536 | 86 | 232 | 3.0 | 10.0 | 0.00 | 0.05 | 0.05 | 54 | 1016.2 |
| 20260904161551 | 87 | 161 | 4.0 | 12.0 | 0.00 | 0.05 | 0.05 | 54 | 1016.2 |
| 20260904160519 | 88 | 161 | 4.0 | 11.0 | 0.00 | 0.05 | 0.05 | 56 | 1016.2 |
| 20260904160037 | 86 | 136 | 4.0 | 14.0 | 0.00 | 0.05 | 0.05 | 56 | 1016.1 |
| 20260904155526 | 86 | 198 | 3.0 | 14.0 | 0.00 | 0.05 | 0.05 | 58 | 1016.1 |
| 20260904155021 | 86 | 186 | 4.0 | 11.0 | 0.00 | 0.05 | 0.05 | 59 | 1016.1 |
| 20260904154543 | 86 | 186 | 4.0 | 10.0 | 0.00 | 0.05 | 0.05 | 59 | 1016.0 |
| 20260904154020 | 85 | 180 | 5.0 | 10.0 | 0.00 | 0.05 | 0.05 | 64 | 1016.0 |
| 20260904153522 | 83 | 130 | 3.0 | 11.0 | 0.00 | 0.05 | 0.05 | 70 | 1015.9 |
| 20260904153051 | 82 | 160 | 4.0 | 11.0 | 0.00 | 0.05 | 0.05 | 71 | 1016.0 |
| 20260904152520 | 81 | 188 | 4.0 | 11.0 | 0.00 | 0.05 | 0.05 | 72 | 1016.0 |
| 20260904152019 | 81 | 173 | 3.0 | 8.0 | 0.00 | 0.05 | 0.05 | 74 | 1016.0 |
| 20260904151539 | 81 | 184 | 3.0 | 8.0 | 0.00 | 0.05 | 0.05 | 73 | 1016.1 |
| 20260904151021 | 81 | 159 | 1.0 | 10.0 | 0.00 | 0.05 | 0.05 | 73 | 1016.1 |
| 20260904150519 | 81 | 133 | 3.0 | 10.0 | 0.00 | 0.05 | 0.05 | 72 | 1016.0 |
| 20260904150038 | 81 | 146 | 4.0 | 10.0 | 0.00 | 0.05 | 0.05 | 71 | 1016.0 |
| 20260904145517 | 81 | 234 | 2.0 | 7.0 | 0.00 | 0.05 | 0.05 | 72 | 1016.0 |
| 20260904145026 | 80 | 159 | 3.0 | 11.0 | 0.00 | 0.05 | 0.05 | 74 | 1016.1 |
| 20260904143038 | 79 | 182 | 3.0 | 10.0 | 0.00 | 0.05 | 0.05 | 76 | 1015.8 |
| 20260904142521 | 78 | 140 | 3.0 | 10.0 | 0.00 | 0.05 | 0.05 | 77 | 1015.8 |
| 20260904142020 | 78 | 150 | 2.0 | 11.0 | 0.00 | 0.05 | 0.05 | 77 | 1015.8 |
| 20260904141538 | 78 | 159 | 4.0 | 11.0 | 0.00 | 0.05 | 0.05 | 78 | 1015.6 |
| 20260904141017 | 77 | 167 | 3.0 | 10.0 | 0.00 | 0.05 | 0.05 | 79 | 1015.6 |
| 20260904140519 | 77 | 187 | 3.0 | 9.0 | 0.01 | 0.05 | 0.05 | 80 | 1015.6 |
| 20260904140039 | 77 | 169 | 3.0 | 8.0 | 0.02 | 0.05 | 0.05 | 79 | 1015.6 |
| 20260904133518 | 75 | 160 | 4.0 | 11.0 | 0.05 | 0.05 | 0.05 | 83 | 1015.6 |
| 20260904133055 | 75 | 166 | 2.0 | 7.0 | 0.05 | 0.05 | 0.05 | 84 | 1015.6 |
| 20260904132520 | 75 | 176 | 2.0 | 8.0 | 0.05 | 0.05 | 0.05 | 84 | 1015.7 |
| 20260904132017 | 75 | 182 | 3.0 | 8.0 | 0.05 | 0.05 | 0.05 | 85 | 1015.7 |
| 20260904131539 | 74 | 167 | 2.0 | 7.0 | 0.05 | 0.05 | 0.05 | 86 | 1015.8 |
| 20260904131016 | 74 | 146 | 2.0 | 7.0 | 0.05 | 0.05 | 0.05 | 86 | 1015.8 |
| 20260904130517 | 74 | 143 | 3.0 | 7.0 | 0.04 | 0.04 | 0.04 | 85 | 1015.8 |
| 20260904130039 | 75 | 159 | 2.0 | 7.0 | 0.02 | 0.02 | 0.02 | 83 | 1015.8 |
| 20260904123522 | 76 | 113 | 2.0 | 5.0 | 0.00 | 0.00 | 0.00 | 80 | 1015.6 |
| 20260904123039 | 75 | 130 | 1.0 | 5.0 | 0.00 | 0.00 | 0.00 | 82 | 1015.3 |
| 20260904122520 | 75 | 149 | 2.0 | 9.0 | 0.00 | 0.00 | 0.00 | 82 | 1015.3 |
| 20260904122020 | 75 | 144 | 3.0 | 9.0 | 0.00 | 0.00 | 0.00 | 82 | 1015.2 |
| 20260904121538 | 75 | 172 | 3.0 | 7.0 | 0.00 | 0.00 | 0.00 | 81 | 1015.1 |
| 20260904121018 | 76 | 141 | 2.0 | 9.0 | 0.00 | 0.00 | 0.00 | 80 | 1015.0 |
| 20260904120519 | 75 | 138 | 3.0 | 9.0 | 0.00 | 0.00 | 0.00 | 81 | 1014.9 |
| 20260904120052 | 75 | 153 | 3.0 | 8.0 | 0.00 | 0.00 | 0.00 | 81 | 1014.9 |
| 20260904115518 | 75 | 158 | 2.0 | 7.0 | 0.00 | 0.00 | 0.00 | 81 | 1015.0 |
| 20260904113040 | 75 | 159 | 2.0 | 7.0 | 0.00 | 0.00 | 0.00 | 82 | 1014.6 |
| 20260904112517 | 75 | 117 | 2.0 | 6.0 | 0.00 | 0.00 | 0.00 | 82 | 1014.6 |
| 20260904112019 | 75 | 117 | 1.0 | 7.0 | 0.00 | 0.00 | 0.00 | 82 | 1014.4 |
| 20260904111538 | 76 | 150 | 2.0 | 9.0 | 0.00 | 0.00 | 0.00 | 80 | 1014.2 |
| 20260904111019 | 76 | 134 | 3.0 | 9.0 | 0.00 | 0.00 | 0.00 | 79 | 1014.3 |
| 20260904110517 | 76 | 116 | 2.0 | 7.0 | 0.00 | 0.00 | 0.00 | 81 | 1014.4 |
| 20260904110038 | 76 | 101 | 2.0 | 6.0 | 0.00 | 0.00 | 0.00 | 81 | 1014.3 |
| 20260904104021 | 77 | 169 | 3.0 | 7.0 | 0.00 | 0.00 | 0.00 | 82 | 1014.2 |
| 20260904103517 | 77 | 0 | 2.0 | 7.0 | 0.00 | 0.00 | 0.00 | 82 | 1014.1 |
| 20260904103038 | 77 | 130 | 3.0 | 7.0 | 0.00 | 0.00 | 0.00 | 82 | 1014.1 |
| 20260904102521 | 77 | 115 | 2.0 | 7.0 | 0.00 | 0.00 | 0.00 | 82 | 1014.2 |
| 20260904102020 | 77 | 142 | 2.0 | 7.0 | 0.00 | 0.00 | 0.00 | 82 | 1014.1 |
| 20260904101541 | 77 | 171 | 3.0 | 10.0 | 0.00 | 0.00 | 0.00 | 82 | 1014.1 |
| 20260904094018 | 76 | 154 | 3.0 | 8.0 | 0.00 | 0.00 | 0.00 | 83 | 1014.0 |
| 20260904093522 | 76 | 144 | 2.0 | 8.0 | 0.00 | 0.00 | 0.00 | 83 | 1013.9 |
| 20260904093038 | 76 | 138 | 3.0 | 8.0 | 0.00 | 0.00 | 0.00 | 82 | 1013.9 |
| 20260904092520 | 76 | 147 | 3.0 | 8.0 | 0.00 | 0.00 | 0.00 | 82 | 1013.9 |
| 20260904092017 | 76 | 154 | 4.0 | 11.0 | 0.00 | 0.00 | 0.00 | 82 | 1013.8 |
| 20260904091538 | 76 | 129 | 4.0 | 11.0 | 0.00 | 0.00 | 0.00 | 82 | 1013.6 |
| 20260904085024 | 77 | 153 | 3.0 | 10.0 | 0.00 | 0.00 | 0.00 | 81 | 1013.9 |
| 20260904084539 | 77 | 160 | 3.0 | 9.0 | 0.00 | 0.00 | 0.00 | 80 | 1014.0 |
| 20260904084019 | 77 | 163 | 4.0 | 9.0 | 0.00 | 0.00 | 0.00 | 80 | 1013.8 |
| 20260904083517 | 77 | 146 | 4.0 | 9.0 | 0.00 | 0.00 | 0.00 | 80 | 1013.7 |
| 20260904083034 | 77 | 137 | 4.0 | 9.0 | 0.00 | 0.00 | 0.00 | 80 | 1013.7 |
| 20260904081020 | 77 | 144 | 3.0 | 10.0 | 0.00 | 0.00 | 0.00 | 79 | 1013.8 |
| 20260904080518 | 77 | 150 | 2.0 | 11.0 | 0.00 | 0.00 | 0.00 | 79 | 1013.8 |
| 20260904075518 | 77 | 176 | 3.0 | 9.0 | 0.00 | 0.00 | 0.00 | 78 | 1013.7 |
| 20260904075020 | 78 | 146 | 4.0 | 9.0 | 0.00 | 0.00 | 0.00 | 78 | 1013.7 |
| 20260904074534 | 78 | 158 | 3.0 | 9.0 | 0.00 | 0.00 | 0.00 | 78 | 1013.8 |
| 20260904074021 | 78 | 161 | 3.0 | 9.0 | 0.00 | 0.00 | 0.00 | 77 | 1013.8 |
| 20260904073518 | 78 | 196 | 3.0 | 8.0 | 0.00 | 0.00 | 0.00 | 77 | 1013.8 |
| 20260904073037 | 78 | 156 | 2.0 | 7.0 | 0.00 | 0.00 | 0.00 | 77 | 1014.0 |
| 20260904070520 | 78 | 169 | 3.0 | 8.0 | 0.00 | 0.00 | 0.00 | 76 | 1014.1 |
| 20260904070042 | 78 | 166 | 4.0 | 9.0 | 0.00 | 0.00 | 0.00 | 76 | 1014.1 |
| 20260904065524 | 78 | 146 | 4.0 | 9.0 | 0.00 | 0.00 | 0.00 | 76 | 1013.9 |
| 20260904065019 | 78 | 163 | 4.0 | 9.0 | 0.00 | 0.00 | 0.00 | 76 | 1013.9 |
| 20260904064536 | 78 | 167 | 3.0 | 9.0 | 0.00 | 0.00 | 0.00 | 76 | 1013.9 |
| 20260904064025 | 78 | 149 | 3.0 | 11.0 | 0.00 | 0.00 | 0.00 | 77 | 1013.8 |
| 20260904063516 | 78 | 146 | 4.0 | 11.0 | 0.00 | 0.00 | 0.00 | 77 | 1013.8 |
| 20260904063046 | 78 | 155 | 4.0 | 10.0 | 0.00 | 0.00 | 0.00 | 78 | 1014.0 |
| 20260904060522 | 77 | 146 | 3.0 | 8.0 | 0.00 | 0.00 | 0.00 | 81 | 1013.9 |
| 20260904055519 | 77 | 150 | 4.0 | 12.0 | 0.00 | 0.00 | 0.00 | 81 | 1014.1 |
| 20260904055019 | 77 | 127 | 3.0 | 12.0 | 0.00 | 0.00 | 0.00 | 81 | 1014.1 |
| 20260904054540 | 77 | 169 | 3.0 | 10.0 | 0.00 | 0.00 | 0.00 | 81 | 1014.0 |
| 20260904054019 | 78 | 161 | 4.0 | 10.0 | 0.00 | 0.00 | 0.00 | 81 | 1014.0 |
| 20260904053522 | 78 | 113 | 4.0 | 9.0 | 0.00 | 0.00 | 0.00 | 81 | 1014.0 |
| 20260904052020 | 78 | 155 | 3.0 | 9.0 | 0.00 | 0.00 | 0.00 | 80 | 1014.1 |
| 20260904051608 | 78 | 142 | 4.0 | 10.0 | 0.00 | 0.00 | 0.00 | 80 | 1014.1 |
| 20260904051026 | 78 | 120 | 4.0 | 10.0 | 0.00 | 0.00 | 0.00 | 80 | 1013.9 |
| 20260904050521 | 78 | 159 | 3.0 | 11.0 | 0.00 | 0.00 | 0.00 | 80 | 1014.0 |
| 20260904050038 | 78 | 128 | 3.0 | 11.0 | 0.00 | 0.00 | 0.00 | 79 | 1013.9 |
| 20260904045519 | 79 | 121 | 3.0 | 10.0 | 0.00 | 0.00 | 0.00 | 79 | 1013.8 |
| 20260904045016 | 79 | 135 | 3.0 | 10.0 | 0.00 | 0.00 | 0.00 | 79 | 1013.8 |
| 20260904044554 | 79 | 131 | 3.0 | 10.0 | 0.00 | 0.00 | 0.00 | 79 | 1013.7 |
| 20260904044017 | 79 | 118 | 4.0 | 11.0 | 0.00 | 0.00 | 0.00 | 79 | 1013.6 |
| 20260904043034 | 79 | 114 | 2.0 | 9.0 | 0.00 | 0.00 | 0.00 | 78 | 1013.7 |
| 20260904041539 | 80 | 125 | 3.0 | 8.0 | 0.00 | 0.00 | 0.00 | 78 | 1013.8 |
| 20260904041019 | 80 | 113 | 3.0 | 8.0 | 0.00 | 0.00 | 0.00 | 77 | 1013.7 |
| 20260904040520 | 80 | 141 | 3.0 | 9.0 | 0.00 | 0.00 | 0.00 | 76 | 1013.7 |
| 20260904040047 | 81 | 126 | 3.0 | 9.0 | 0.00 | 0.00 | 0.00 | 75 | 1013.8 |
| 20260904035517 | 81 | 142 | 3.0 | 11.0 | 0.00 | 0.00 | 0.00 | 74 | 1013.7 |
| 20260904035026 | 81 | 161 | 4.0 | 13.0 | 0.00 | 0.00 | 0.00 | 74 | 1013.7 |
| 20260904034539 | 81 | 147 | 4.0 | 13.0 | 0.00 | 0.00 | 0.00 | 74 | 1013.6 |
| 20260904034017 | 81 | 143 | 5.0 | 12.0 | 0.00 | 0.00 | 0.00 | 74 | 1013.6 |
| 20260904033516 | 81 | 147 | 4.0 | 12.0 | 0.00 | 0.00 | 0.00 | 75 | 1013.6 |
| 20260904033042 | 81 | 148 | 3.0 | 11.0 | 0.00 | 0.00 | 0.00 | 75 | 1013.6 |
| 20260904031537 | 82 | 159 | 3.0 | 10.0 | 0.00 | 0.00 | 0.00 | 75 | 1013.4 |
| 20260904025518 | 82 | 138 | 4.0 | 13.0 | 0.00 | 0.00 | 0.00 | 74 | 1013.1 |
| 20260904025021 | 82 | 138 | 4.0 | 13.0 | 0.00 | 0.00 | 0.00 | 73 | 1013.1 |
| 20260904024539 | 82 | 134 | 5.0 | 11.0 | 0.00 | 0.00 | 0.00 | 72 | 1013.0 |
| 20260904024019 | 83 | 160 | 6.0 | 11.0 | 0.00 | 0.00 | 0.00 | 71 | 1012.9 |
| 20260904023517 | 83 | 133 | 4.0 | 12.0 | 0.00 | 0.00 | 0.00 | 70 | 1012.9 |
| 20260904023050 | 83 | 113 | 5.0 | 12.0 | 0.00 | 0.00 | 0.00 | 69 | 1012.8 |
| 20260904022521 | 84 | 133 | 4.0 | 11.0 | 0.00 | 0.00 | 0.00 | 68 | 1012.8 |
| 20260904022017 | 84 | 134 | 4.0 | 14.0 | 0.00 | 0.00 | 0.00 | 68 | 1012.8 |
| 20260904021537 | 84 | 142 | 6.0 | 14.0 | 0.00 | 0.00 | 0.00 | 67 | 1012.7 |
| 20260904015519 | 85 | 151 | 2.0 | 12.0 | 0.00 | 0.00 | 0.00 | 66 | 1012.3 |
| 20260904015022 | 85 | 145 | 5.0 | 12.0 | 0.00 | 0.00 | 0.00 | 65 | 1012.4 |
| 20260904014022 | 86 | 136 | 6.0 | 11.0 | 0.00 | 0.00 | 0.00 | 65 | 1012.2 |
| 20260904013519 | 86 | 144 | 5.0 | 17.0 | 0.00 | 0.00 | 0.00 | 64 | 1012.1 |
| 20260904013039 | 86 | 151 | 7.0 | 17.0 | 0.00 | 0.00 | 0.00 | 64 | 1012.0 |
| 20260904012517 | 86 | 152 | 5.0 | 15.0 | 0.00 | 0.00 | 0.00 | 63 | 1011.9 |
| 20260904012018 | 87 | 140 | 6.0 | 15.0 | 0.00 | 0.00 | 0.00 | 63 | 1011.9 |
| 20260904011538 | 87 | 140 | 6.0 | 15.0 | 0.00 | 0.00 | 0.00 | 63 | 1011.7 |
| 20260904010525 | 88 | 142 | 6.0 | 13.0 | 0.00 | 0.00 | 0.00 | 62 | 1011.8 |
| 20260904010040 | 88 | 144 | 6.0 | 14.0 | 0.00 | 0.00 | 0.00 | 61 | 1011.8 |
| 20260904005519 | 88 | 148 | 5.0 | 16.0 | 0.00 | 0.00 | 0.00 | 61 | 1011.7 |
| 20260904005019 | 89 | 136 | 6.0 | 17.0 | 0.00 | 0.00 | 0.00 | 60 | 1011.7 |
| 20260904004539 | 89 | 140 | 6.0 | 17.0 | 0.00 | 0.00 | 0.00 | 59 | 1011.7 |
| 20260904004018 | 90 | 138 | 6.0 | 17.0 | 0.00 | 0.00 | 0.00 | 58 | 1011.6 |
| 20260904002520 | 91 | 157 | 5.0 | 14.0 | 0.00 | 0.00 | 0.00 | 56 | 1011.5 |